Weather History for Barking Sands, HI

Change the Weather History Date:

Tuesday, January 1, 2013

  Actual Average Record
Temperature  
Mean Temperature 72 °F -  
Max Temperature 80 °F 81 °F 85 °F (1967)
Min Temperature 64 °F 60 °F 45 °F (1973)
Cooling Degree Days 7    
Growing Degree Days 22 (Base 50)    
Moisture  
Dew Point 67 °F    
Average Humidity 81    
Maximum Humidity 94    
Minimum Humidity 58    
Precipitation  
Precipitation 0.00 in - - ()
Sea Level Pressure  
Sea Level Pressure 30.09 in    
Wind  
Wind Speed 18 mph (NNE)    
Max Wind Speed 28 mph    
Max Gust Speed 37 mph    
Visibility 10 miles    
Events Rain    
Averages and records for this station are not official NWS values.
T = Trace of Precipitation, MM = Missing Value Source: NWS Daily Summary

Daily Weather History Graph

Daily Weather History Graph

Search for Another Location

Airport:

Trip Planner

Search our weather history database for the weather conditions in past years. The results will help you decide how hot, cold, wet, or windy it might be!

Date:

Astronomy

Jan. 01, 2013 Rise Set
Actual Time 7:18 AM HST 6:07 PM HST
Civil Twilight 6:54 AM HST 6:32 PM HST
Nautical Twilight 6:26 AM HST 6:59 PM HST
Astronomical Twilight 5:58 AM HST 7:27 PM HST
Moon 10:14 PM HST (1/1) 10:08 AM HST (1/1)
Length of Visible Light 11h 37m
Length of Day
10h 49m
Waning Gibbous, 82% of the Moon is Illuminated
Jan 1
Waning Gibbous
Jan 4
Last Quarter
Jan 11
New
Jan 18
First Quarter
Jan 26
Full

Hourly Weather History & Observations

Time (HST) Temp. Heat Index Dew Point Humidity Pressure Visibility Wind Dir Wind Speed Gust Speed Precip Events Conditions
12:56 AM 73.9 °F - 66.9 °F 79% 30.09 in 10.0 mi North 11.5 mph - N/A   Partly Cloudy
1:56 AM 73.9 °F - 66.9 °F 79% 30.08 in 10.0 mi North 15.0 mph - N/A   Mostly Cloudy
2:56 AM 73.9 °F - 68.0 °F 82% 30.09 in 10.0 mi North 15.0 mph - N/A   Scattered Clouds
3:56 AM 73.0 °F - 69.1 °F 87% 30.09 in 10.0 mi NNE 21.9 mph 27.6 mph N/A   Scattered Clouds
4:56 AM 73.0 °F - 69.1 °F 87% 30.10 in 10.0 mi North 23.0 mph - 0.00 in   Overcast
5:56 AM 72.0 °F - 70.0 °F 93% 30.11 in 10.0 mi North 25.3 mph 31.1 mph 0.00 in   Overcast
6:14 AM 71.6 °F - 68.0 °F 88% 30.10 in 10.0 mi NNE 26.5 mph 32.2 mph N/A   Overcast
6:21 AM 71.6 °F - 69.8 °F 94% 30.10 in 10.0 mi North 23.0 mph 32.2 mph 0.00 in Rain Light Rain
6:34 AM 71.6 °F - 69.8 °F 94% 30.11 in 10.0 mi North 25.3 mph 33.4 mph 0.00 in   Overcast
6:56 AM 70.0 °F - 68.0 °F 93% 30.12 in 10.0 mi North 24.2 mph 34.5 mph 0.00 in   Mostly Cloudy
7:56 AM 70.0 °F - 66.0 °F 87% 30.12 in 10.0 mi North 26.5 mph 36.8 mph N/A   Clear
8:56 AM 73.0 °F - 64.9 °F 76% 30.13 in 10.0 mi North 25.3 mph 36.8 mph N/A   Clear
9:56 AM 77.0 °F - 69.1 °F 76% 30.13 in 10.0 mi North 19.6 mph 27.6 mph N/A   Clear
10:56 AM 78.1 °F - 66.0 °F 66% 30.12 in 10.0 mi North 21.9 mph 28.8 mph N/A   Clear
11:56 AM 79.0 °F - 66.0 °F 64% 30.09 in 10.0 mi North 20.7 mph 32.2 mph N/A   Clear
12:56 PM 80.1 °F 81.7 °F 64.0 °F 58% 30.06 in 10.0 mi North 26.5 mph 35.7 mph N/A   Clear
1:56 PM 79.0 °F - 63.0 °F 58% 30.04 in 10.0 mi NNE 24.2 mph 33.4 mph N/A   Clear
2:56 PM 79.0 °F - 64.0 °F 60% 30.03 in 10.0 mi North 26.5 mph 33.4 mph N/A   Scattered Clouds
3:56 PM 77.0 °F - 69.1 °F 76% 30.04 in 10.0 mi North 27.6 mph 34.5 mph N/A   Mostly Cloudy
4:56 PM 75.0 °F - 68.0 °F 79% 30.04 in 10.0 mi NNE 18.4 mph 24.2 mph N/A   Clear
5:56 PM 73.9 °F - 69.1 °F 85% 30.07 in 10.0 mi NNE 11.5 mph - N/A   Mostly Cloudy
6:56 PM 73.0 °F - 69.1 °F 87% 30.09 in 10.0 mi NNE 9.2 mph - N/A   Mostly Cloudy
7:56 PM 72.0 °F - 70.0 °F 93% 30.09 in 10.0 mi North 8.1 mph - N/A   Clear
8:56 PM 71.1 °F - 69.1 °F 93% 30.10 in 10.0 mi NNE 5.8 mph - N/A   Clear
9:56 PM 68.0 °F - 63.0 °F 84% 30.10 in 10.0 mi ENE 3.5 mph - N/A   Clear
10:56 PM 64.9 °F - 61.0 °F 87% 30.11 in 10.0 mi East 4.6 mph - N/A   Clear
11:56 PM 64.9 °F - 63.0 °F 93% 30.10 in 10.0 mi East 3.5 mph - N/A   Clear